Regional Weather Roundup
Issued by NWS New Orleans/Baton Rouge, LA

Home | Current Version | Previous Version | Text Only | Print | Product List | Glossary On
Versions: 1 2 3 4 5 6 7 8 9 10 11 12 13 14 15 16 17 18 19 20 21 22 23 24 25 26 27 28 29 30 31 32 33 34 35 36 37 38 39 40 41 42 43 44 45 46 47 48 49 50
000
ASUS44 KLIX 312010
RWRLIX
NEW ORLEANS REGIONAL WEATHER ROUNDUP
NATIONAL WEATHER SERVICE NEW ORLEANS LA
300 PM CDT FRI OCT 31 2014

NOTE: "FAIR" INDICATES FEW OR NO CLOUDS BELOW 12,000 FEET WITH NO
      SIGNIFICANT WEATHER AND/OR OBSTRUCTIONS TO VISIBILITY.
      SKY/WX - SKY CONDITION AND SIGNIFICANT WEATHER.
      TMP - AIR TEMPERATURE.     DP    - DEWPOINT TEMPERATURE.
      RH  - RELATIVE HUMIDITY.   PRES  - PRESSURE.
      HI  - HEAT INDEX.          WCI   - WIND CHILL INDEX.

*  THESE STATIONS ARE NOT NWS OR FAA STATIONS AND ARE NOT UNDER
   NWS QUALITY CONTROL.

LAZ038-040-048-061>063-065>067-069-312100-
SOUTHEAST LOUISIANA

CITY           SKY/WX    TMP DP  RH WIND       PRES   REMARKS
N.O. AUDUBON     N/A     76  48  37 MISG        N/A
N.O. INTL ARPT MOSUNNY   75  42  30 NW17G23   30.00F
N.O. LAKEFRONT SUNNY     74  47  38 NW18      30.00F
N.O. DOWNTOWN*   N/A     75  43  31 W7G18     30.01S
SLIDELL        SUNNY     75  43  31 NW12G20   29.98S
BATON ROUGE    SUNNY     73  44  35 NW15G23   30.05S
BOOTHVILLE     SUNNY     74  48  39 NW16G26   29.98F
BELLE CHASSE   MOSUNNY   75  40  28 N10G22    29.99F
BOGALUSA*        N/A     75  41  30 N17G23    30.01S
NEW ROADS*       N/A     72  47  41 N15G22    30.07S
GONZALES*        N/A     73  45  35 W13G22    30.03S
HAMMOND*       SUNNY     75  41  29 NW20G25   30.03S
HOUMA*         SUNNY     75  39  27 NW16      30.01F
PORT FOURCHON* CLEAR     75  46  35 NW16G22   30.03F

$$

MSZ070-080>082-312100-
SOUTHERN MISSISSIPPI

CITY           SKY/WX    TMP DP  RH WIND       PRES   REMARKS
MCCOMB         SUNNY     71  44  37 N21G28    30.04S
GULFPORT       MOSUNNY   75  42  30 NW18G26   29.95S
BILOXI         SUNNY     76  45  33 NW14G23   29.95S
PASCAGOULA     SUNNY     75  43  31 NW13G21   29.93F
STENNIS ARPT*  SUNNY     75  36  23 N12G20    29.97F

$$

COASTAL OBSERVATIONS
LAKE AND NEARSHORE STATIONS

STATION/POSITION TIME  TEMP    WIND        PRES    WAVE
                       AIR SEA DIR/SP/G            HT/PER
                 (UTC) (F)     (DEG/KT/KT) (MB)    (FT/S)
PASCAGOULA       2000   74     300/  8/ 13 1013.0
WAVELAND YACHT   2000   72     340/ 16/ 22 1013.9
GRAND ISLE       2000   74 74  340/ 12/ 16 1016.0
SOUTHWEST PASS   2000   77 78              1015.9
NEW CANAL        2000      70  300/  8/ 13 1016.3
SHELL BEACH      2000   71 68  300/ 18/ 23 1015.1

OFFSHORE STATIONS

STATION/POSITION TIME  TEMP    WIND        PRES    WAVE
                       AIR SEA DIR/SP/G            HT/PER
                 (UTC) (F)     (DEG/KT/KT) (MB)    (FT/S)
64 S DAUPHIN ISL 1947   70 79  300/ 16/ 19 1015.0    2/ 4

$$




USA.gov is the U.S. government's official web portal to all federal, state and local government web resources and services.